Voltar ao catálogo

STARLINK-30272

AtivoComunicaçõesVLEO
NORAD 57860·PAYLOAD·🇺🇸 United States

Lançado Sep 12, 2023 de Vandenberg Space Force Base

Loading…

Próximas Passagens (próximas 24 horas)

TLE

AtualizadoSource: CelesTrak SupGP

Época: Sep 15, 2026, 03:20 UTC

1 57860C 23141W   26258.13937500  .00026600  00000+0  85535-3 0  2588
2 57860  53.1571 122.6740 0001268  82.8943 304.9895 15.31690458    14

Acompanhe STARLINK-30272 em tempo real com AllMySat

Download on the App Store